M0XDC Weather Reports


time (UTC)temp
C
wind
direction
speed
KPH
gust
KPH
rain 1hr
cm
rain 24hr
cm
rain mn
cm
humidity
%
barometer
mb
20260507234433 7 90 0.0 3.2 0.00 0.00 0.00 90 1014.8
20260507233218 7 90 0.0 3.2 0.00 0.00 0.00 90 1014.7
20260507231503 7 90 0.0 3.2 0.00 0.00 0.00 89 1014.6
20260507231433 7 90 0.0 3.2 0.00 0.00 0.00 89 1014.7
20260507230005 7 90 0.0 3.2 0.00 0.00 0.00 89 1014.7
20260507224505 7 90 0.0 3.2 0.00 0.00 0.00 88 1014.8
20260507224433 7 90 0.0 3.2 0.00 0.00 0.00 88 1015.0
20260507223220 8 109 0.0 3.2 0.00 0.00 0.00 88 1014.7
20260507221505 8 58 1.6 3.2 0.00 0.00 0.00 86 1014.9
20260507221433 8 58 1.6 3.2 0.00 0.00 0.00 86 1015.0
20260507220003 8 67 0.0 3.2 0.00 0.00 0.00 86 1014.9
20260507214433 8 67 0.0 3.2 0.00 0.00 0.00 85 1015.0
20260507211503 8 90 1.6 3.2 0.00 0.00 0.00 84 1014.8
20260507211433 8 90 1.6 3.2 0.00 0.00 0.00 85 1014.8
20260507210006 8 67 0.0 3.2 0.00 0.00 0.00 83 1014.7
20260507204503 9 86 0.0 3.2 0.00 0.00 0.00 82 1014.9
20260507204433 9 82 0.0 3.2 0.00 0.00 0.00 82 1014.7
20260507203005 9 74 1.6 3.2 0.00 0.00 0.00 81 1014.6
20260507201504 10 75 1.6 6.4 0.00 0.00 0.00 80 1014.2
20260507201433 10 75 1.6 6.4 0.00 0.00 0.00 80 1014.4
20260507200008 10 67 1.6 3.2 0.00 0.00 0.00 80 1014.2
20260507194505 10 84 1.6 6.4 0.00 0.00 0.00 79 1014.4
20260507194433 10 79 1.6 6.4 0.00 0.00 0.00 79 1014.1
20260507193005 10 72 1.6 6.4 0.00 0.00 0.00 78 1014.2
20260507191505 10 82 1.6 6.4 0.00 0.00 0.00 77 1013.9
20260507191433 10 80 1.6 6.4 0.00 0.00 0.00 77 1013.9
20260507190006 10 51 1.6 6.4 0.00 0.00 0.00 76 1014.1
20260507184503 10 55 3.2 9.7 0.00 0.00 0.00 74 1014.0
20260507184433 10 60 1.6 9.7 0.00 0.00 0.00 74 1013.9
20260507183005 11 55 3.2 6.4 0.00 0.00 0.00 73 1014.0
20260507181504 11 101 3.2 6.4 0.00 0.00 0.00 71 1013.9
20260507181433 11 108 1.6 6.4 0.00 0.00 0.00 71 1013.8
20260507180003 11 59 3.2 11.3 0.00 0.00 0.00 69 1013.7
20260507174717 11 60 4.8 12.9 0.00 0.00 0.00 69 1013.7
20260507174433 11 69 3.2 12.9 0.00 0.00 0.00 69 1013.8
20260507173005 11 78 3.2 6.4 0.00 0.00 0.00 68 1013.6
20260507171506 12 60 4.8 12.9 0.00 0.00 0.00 68 1013.5
20260507171433 12 58 3.2 12.9 0.00 0.00 0.00 68 1013.7
20260507170005 12 97 3.2 6.4 0.00 0.00 0.00 64 1013.7
20260507164503 12 141 1.6 9.7 0.00 0.00 0.00 62 1013.6
20260507164433 12 139 3.2 9.7 0.00 0.00 0.00 62 1013.8
20260507163004 13 105 1.6 12.9 0.00 0.00 0.00 61 1013.8
20260507161718 13 135 3.2 11.3 0.00 0.00 0.00 62 1013.8
20260507161433 13 70 1.6 9.7 0.00 0.00 0.00 62 1013.8
20260507160003 13 134 3.2 9.7 0.00 0.00 0.00 60 1013.7
20260507154503 14 48 4.8 6.4 0.00 0.00 0.00 58 1013.8
20260507154433 14 49 4.8 6.4 0.00 0.00 0.00 58 1013.8
20260507153003 13 64 4.8 11.3 0.00 0.00 0.00 59 1013.7
20260507151718 13 175 1.6 11.3 0.00 0.00 0.00 59 1013.6
20260507151433 13 169 1.6 11.3 0.00 0.00 0.00 60 1013.6
20260507150005 13 138 3.2 9.7 0.00 0.00 0.00 61 1013.6
20260507144505 13 132 3.2 9.7 0.00 0.00 0.00 63 1013.5
20260507144433 13 126 3.2 11.3 0.00 0.00 0.00 63 1013.7
20260507143004 13 79 4.8 11.3 0.00 0.00 0.00 60 1013.7
20260507141503 13 63 4.8 9.7 0.00 0.00 0.00 62 1013.9
20260507141433 13 58 4.8 9.7 0.00 0.00 0.00 62 1013.7
20260507140217 13 67 3.2 9.7 0.00 0.00 0.00 60 1013.7
20260507134719 13 80 3.2 11.3 0.00 0.00 0.00 61 1013.8
20260507134433 13 81 4.8 12.9 0.00 0.00 0.00 62 1013.9
20260507133218 13 112 3.2 11.3 0.00 0.00 0.00 62 1013.8
20260507131503 13 71 3.2 12.9 0.00 0.00 0.00 62 1014.0
20260507131433 13 68 4.8 12.9 0.00 0.00 0.00 61 1013.9
20260507130005 13 82 3.2 9.7 0.00 0.00 0.00 64 1014.0
20260507124503 12 77 3.2 6.4 0.00 0.00 0.00 65 1014.2
20260507124433 12 70 3.2 6.4 0.00 0.00 0.00 66 1014.1
20260507123005 12 79 3.2 9.7 0.00 0.00 0.00 68 1014.2
20260507121503 11 65 1.6 6.4 0.00 0.00 0.00 70 1014.1
20260507121433 11 72 1.6 6.4 0.00 0.00 0.00 70 1014.0
20260507120003 11 61 3.2 6.4 0.00 0.00 0.00 71 1014.2
20260507114505 11 69 1.6 6.4 0.00 0.00 0.00 67 1014.2
20260507114433 11 66 3.2 6.4 0.00 0.00 0.00 67 1014.2
20260507113005 11 65 1.6 6.4 0.00 0.00 0.00 66 1014.2
20260507111504 11 80 1.6 6.4 0.00 0.00 0.00 67 1014.4
20260507111433 11 81 3.2 6.4 0.00 0.00 0.00 67 1014.2
20260507110008 12 63 1.6 6.4 0.00 0.00 0.00 64 1014.5
20260507104504 12 91 1.6 6.4 0.00 0.00 0.00 64 1014.5
20260507104433 12 102 0.0 3.2 0.00 0.00 0.00 64 1014.2
20260507103003 12 37 3.2 6.4 0.00 0.00 0.00 65 1014.6
20260507101506 11 57 1.6 6.4 0.00 0.00 0.00 67 1014.5
20260507101433 11 54 3.2 6.4 0.00 0.00 0.00 66 1014.5
20260507100217 11 119 3.2 3.2 0.00 0.00 0.00 66 1014.4
20260507094718 11 198 0.0 6.4 0.00 0.00 0.00 67 1014.4
20260507094433 11 181 0.0 6.4 0.00 0.00 0.00 69 1014.4
20260507091503 12 114 0.0 3.2 0.00 0.00 0.00 66 1014.2
20260507091433 12 121 0.0 3.2 0.00 0.00 0.00 66 1014.5
20260507090004 12 65 3.2 6.4 0.00 0.00 0.00 68 1014.2
20260507084505 11 80 0.0 6.4 0.00 0.00 0.00 68 1014.2
20260507084433 11 86 3.2 6.4 0.00 0.00 0.00 67 1014.2
20260507083003 11 79 1.6 6.4 0.00 0.00 0.00 68 1014.2
20260507081505 11 64 0.0 3.2 0.00 0.00 0.00 71 1014.2
20260507081433 11 59 0.0 3.2 0.00 0.00 0.00 72 1014.4
20260507080003 11 52 0.0 6.4 0.00 0.00 0.00 73 1014.1
20260507074506 10 64 1.6 6.4 0.00 0.00 0.00 75 1014.2
20260507074433 10 60 3.2 6.4 0.00 0.00 0.00 75 1014.0
20260507073006 10 74 1.6 6.4 0.00 0.00 0.00 76 1014.0
20260507071505 9 71 1.6 3.2 0.00 0.00 0.00 77 1013.8
20260507071433 9 72 1.6 3.2 0.00 0.00 0.00 77 1014.0
20260507070218 8 83 3.2 6.4 0.00 0.00 0.00 78 1014.1
20260507064504 8 68 1.6 6.4 0.00 0.00 0.00 79 1014.0
20260507064433 8 62 1.6 6.4 0.00 0.00 0.00 79 1014.0
20260507061505 8 54 1.6 3.2 0.00 0.00 0.00 82 1013.8
20260507061433 8 51 1.6 3.2 0.00 0.00 0.00 82 1013.8
20260507060003 7 62 3.2 6.4 0.00 0.00 0.00 83 1013.8
20260507054505 7 49 3.2 3.2 0.00 0.00 0.00 84 1013.8
20260507054433 7 49 1.6 3.2 0.00 0.00 0.00 84 1013.5
20260507053005 7 67 0.0 3.2 0.00 0.00 0.00 84 1013.5
20260507051505 7 67 1.6 3.2 0.00 0.00 0.00 84 1013.6
20260507051433 7 67 0.0 3.2 0.00 0.00 0.00 84 1013.5
20260507050005 6 67 0.0 3.2 0.00 0.00 0.00 85 1013.5
20260507044433 6 67 0.0 3.2 0.00 0.00 0.00 85 1013.3
20260507043005 6 67 0.0 3.2 0.00 0.00 0.00 85 1013.2
20260507041504 6 52 0.0 3.2 0.00 0.00 0.00 85 1013.0
20260507041433 6 52 0.0 3.2 0.00 0.00 0.00 85 1013.3
20260507040005 7 45 0.0 3.2 0.00 0.00 0.00 84 1013.2
20260507034503 7 59 0.0 3.2 0.00 0.00 0.00 85 1013.2
20260507034433 7 67 0.0 3.2 0.00 0.00 0.00 85 1013.3
20260507033217 7 90 0.0 6.4 0.00 0.00 0.00 85 1013.0
20260507031505 7 60 3.2 9.7 0.00 0.00 0.00 85 1013.2
20260507031433 7 58 3.2 9.7 0.00 0.00 0.00 85 1013.2
20260507030218 7 51 1.6 6.4 0.00 0.00 0.00 86 1013.3
20260507024505 7 45 0.0 3.2 0.00 0.00 0.00 85 1013.0
20260507024433 7 45 0.0 3.2 0.00 0.00 0.00 85 1013.2
20260507023003 7 45 0.0 3.2 0.00 0.00 0.00 85 1013.0
20260507021503 7 45 0.0 3.2 0.00 0.00 0.00 85 1013.0
20260507021433 7 45 0.0 3.2 0.00 0.00 0.00 85 1012.9
20260507020218 7 45 0.0 3.2 0.00 0.00 0.00 85 1013.0
20260507014504 7 0 0.0 0.0 0.00 0.00 0.00 84 1013.0
20260507014433 7 0 0.0 0.0 0.00 0.00 0.00 84 1012.8
20260507013003 7 45 0.0 3.2 0.00 0.00 0.00 84 1012.8
20260507011505 7 79 0.0 3.2 0.00 0.00 0.00 84 1012.8
20260507011433 7 79 0.0 3.2 0.00 0.00 0.00 83 1012.6
20260507010005 7 121 0.0 3.2 0.00 0.00 0.00 83 1012.7
20260507004719 8 70 0.0 3.2 0.00 0.00 0.00 82 1012.8
20260507004433 8 51 0.0 3.2 0.00 0.00 0.00 82 1012.8
20260507003003 8 67 1.6 3.2 0.00 0.00 0.00 81 1012.8
20260507001508 8 59 0.0 3.2 0.00 0.00 0.00 81 1012.7
20260507001433 8 56 0.0 3.2 0.00 0.00 0.00 81 1013.0
20260507000003 8 45 1.6 3.2 0.00 0.00 0.00 81 1012.8